| time (UTC) | temp F | wind direction | speed knots | gust knots | rain 1hr in | rain 24hr in | rain mn in | humidity % | barometer mb |
| 20260504060247 | 50 | 244 | 1.7 | 2.6 | 0.00 | 0.00 | 0.00 | 64 | 1013.0 |
| 20260504050709 | 49 | 257 | 3.5 | 5.2 | 0.00 | 0.00 | 0.00 | 66 | 1013.6 |
| 20260504050206 | 49 | 270 | 0.9 | 3.5 | 0.00 | 0.00 | 0.00 | 66 | 1013.6 |
| 20260504045704 | 49 | 134 | 1.7 | 2.6 | 0.00 | 0.00 | 0.00 | 67 | 1013.6 |
| 20260504045203 | 49 | 242 | 1.7 | 3.5 | 0.00 | 0.00 | 0.00 | 67 | 1013.6 |
| 20260504044701 | 49 | 264 | 0.9 | 2.6 | 0.00 | 0.00 | 0.00 | 67 | 1013.6 |
| 20260504044158 | 49 | 222 | 1.7 | 3.5 | 0.00 | 0.00 | 0.00 | 67 | 1013.6 |
| 20260504043655 | 48 | 186 | 1.7 | 2.6 | 0.00 | 0.00 | 0.00 | 67 | 1013.7 |
| 20260504043152 | 48 | 256 | 2.6 | 6.1 | 0.00 | 0.00 | 0.00 | 67 | 1013.7 |
| 20260504042649 | 48 | 125 | 2.6 | 3.5 | 0.00 | 0.00 | 0.00 | 68 | 1013.8 |
| 20260504042146 | 48 | 235 | 0.9 | 2.6 | 0.00 | 0.00 | 0.00 | 68 | 1013.9 |
| 20260504041642 | 48 | 241 | 1.7 | 3.5 | 0.00 | 0.00 | 0.00 | 68 | 1014.1 |
| 20260504041138 | 48 | 50 | 0.9 | 2.6 | 0.00 | 0.00 | 0.00 | 68 | 1013.7 |
| 20260504040635 | 48 | 248 | 4.3 | 6.1 | 0.00 | 0.00 | 0.00 | 68 | 1013.9 |
| 20260504040132 | 48 | 243 | 0.9 | 5.2 | 0.00 | 0.00 | 0.00 | 68 | 1013.9 |
| 20260504035629 | 48 | 268 | 1.7 | 2.6 | 0.00 | 0.00 | 0.00 | 68 | 1014.0 |
| 20260504035125 | 48 | 271 | 2.6 | 6.1 | 0.00 | 0.00 | 0.00 | 68 | 1013.9 |
| 20260504034623 | 48 | 242 | 1.7 | 3.5 | 0.00 | 0.00 | 0.00 | 68 | 1014.0 |
| 20260504034120 | 48 | 124 | 0.9 | 2.6 | 0.00 | 0.00 | 0.00 | 68 | 1014.2 |
| 20260504033618 | 47 | 251 | 1.7 | 3.5 | 0.00 | 0.00 | 0.00 | 70 | 1014.0 |
| 20260504033115 | 48 | 258 | 1.7 | 3.5 | 0.00 | 0.00 | 0.00 | 69 | 1014.2 |
| 20260504032612 | 48 | 248 | 1.7 | 2.6 | 0.00 | 0.00 | 0.00 | 69 | 1014.2 |
| 20260504032109 | 48 | 157 | 0.0 | 3.5 | 0.00 | 0.00 | 0.00 | 69 | 1014.3 |
| 20260504031606 | 48 | 165 | 1.7 | 5.2 | 0.00 | 0.00 | 0.00 | 69 | 1014.0 |
| 20260504031102 | 48 | 128 | 1.7 | 2.6 | 0.00 | 0.00 | 0.00 | 68 | 1014.2 |
| 20260504030559 | 48 | 121 | 1.7 | 2.6 | 0.00 | 0.00 | 0.00 | 68 | 1014.4 |
| 20260504030055 | 48 | 157 | 1.7 | 1.7 | 0.00 | 0.00 | 0.00 | 69 | 1014.3 |
| 20260504025553 | 48 | 123 | 0.9 | 3.5 | 0.00 | 0.00 | 0.00 | 68 | 1014.4 |
| 20260504025049 | 49 | 266 | 0.0 | 1.7 | 0.00 | 0.00 | 0.00 | 68 | 1014.5 |
| 20260504024547 | 49 | 243 | 1.7 | 2.6 | 0.00 | 0.00 | 0.00 | 68 | 1014.6 |
| 20260504024043 | 49 | 174 | 1.7 | 2.6 | 0.00 | 0.00 | 0.00 | 67 | 1014.6 |
| 20260504023540 | 49 | 135 | 0.9 | 1.7 | 0.00 | 0.00 | 0.00 | 67 | 1014.5 |
| 20260504023036 | 49 | 297 | 0.0 | 2.6 | 0.00 | 0.00 | 0.00 | 67 | 1014.8 |
| 20260504022532 | 49 | 152 | 1.7 | 1.7 | 0.00 | 0.00 | 0.00 | 66 | 1014.7 |
| 20260504022028 | 49 | 116 | 0.9 | 2.6 | 0.00 | 0.00 | 0.00 | 66 | 1014.6 |
| 20260504021526 | 49 | 243 | 1.7 | 1.7 | 0.00 | 0.00 | 0.00 | 67 | 1014.6 |
| 20260504021023 | 49 | 153 | 1.7 | 3.5 | 0.00 | 0.00 | 0.00 | 66 | 1014.5 |
| 20260504020519 | 49 | 155 | 0.0 | 0.0 | 0.00 | 0.00 | 0.00 | 66 | 1014.6 |
| 20260504020016 | 0 | 0.0 | 0.0 | 0.00 | 0.00 | 0.00 | 1014.5 | ||
| 20260504015512 | 0 | 0.0 | 0.0 | 0.00 | 0.00 | 0.00 | 1014.5 | ||
| 20260504015008 | 0 | 0.0 | 0.0 | 0.00 | 0.00 | 0.00 | 1014.6 | ||
| 20260504014504 | 0 | 0.0 | 0.0 | 0.00 | 0.00 | 0.00 | 1014.5 | ||
| 20260504014002 | 0 | 0.0 | 0.0 | 0.00 | 0.00 | 0.00 | 1014.5 | ||
| 20260504013500 | 49 | 264 | 1.7 | 1.7 | 0.00 | 0.00 | 0.00 | 66 | 1014.6 |
| 20260504012955 | 49 | 264 | 1.7 | 1.7 | 0.00 | 0.00 | 0.00 | 66 | 1014.6 |
| 20260504012454 | 0 | 0.0 | 0.0 | 0.00 | 0.00 | 0.00 | 1014.5 | ||
| 20260504011951 | 0 | 0.0 | 0.0 | 0.00 | 0.00 | 0.00 | 1014.5 | ||
| 20260504011447 | 49 | 157 | 2.6 | 5.2 | 0.00 | 0.00 | 0.00 | 67 | 1014.7 |
| 20260504010944 | 49 | 157 | 2.6 | 5.2 | 0.00 | 0.00 | 0.00 | 67 | 1014.7 |
| 20260504010440 | 49 | 133 | 3.5 | 5.2 | 0.00 | 0.00 | 0.00 | 67 | 1014.8 |
| 20260504005936 | 49 | 203 | 2.6 | 3.5 | 0.00 | 0.00 | 0.00 | 67 | 1014.9 |
| 20260504005433 | 50 | 110 | 0.9 | 0.9 | 0.00 | 0.00 | 0.00 | 66 | 1014.9 |
| 20260504004930 | 50 | 110 | 0.9 | 1.7 | 0.00 | 0.00 | 0.00 | 66 | 1014.8 |
| 20260504004428 | 50 | 290 | 2.6 | 5.2 | 0.00 | 0.00 | 0.00 | 64 | 1014.9 |
| 20260504003925 | 50 | 226 | 0.9 | 0.9 | 0.00 | 0.00 | 0.00 | 64 | 1015.1 |
| 20260504003421 | 50 | 298 | 3.5 | 5.2 | 0.00 | 0.00 | 0.00 | 64 | 1014.8 |
| 20260504002918 | 50 | 173 | 0.0 | 0.9 | 0.00 | 0.00 | 0.00 | 62 | 1014.9 |
| 20260504002415 | 51 | 288 | 2.6 | 3.5 | 0.00 | 0.00 | 0.00 | 62 | 1014.8 |
| 20260504001912 | 51 | 241 | 1.7 | 2.6 | 0.00 | 0.00 | 0.00 | 60 | 1014.8 |
| 20260504001410 | 51 | 241 | 3.5 | 5.2 | 0.00 | 0.00 | 0.00 | 59 | 1014.7 |
| 20260504000906 | 52 | 230 | 3.5 | 5.2 | 0.00 | 0.00 | 0.00 | 57 | 1014.8 |
| 20260504000403 | 55 | 296 | 3.5 | 5.2 | 0.00 | 0.00 | 0.00 | 49 | 1014.5 |
| 20260503235901 | 55 | 324 | 1.7 | 2.6 | 0.00 | 0.00 | 0.00 | 46 | 1014.2 |
| 20260503235358 | 56 | 222 | 1.7 | 2.6 | 0.00 | 0.00 | 0.00 | 43 | 1014.2 |
| 20260503234855 | 56 | 222 | 1.7 | 2.6 | 0.00 | 0.00 | 0.00 | 43 | 1014.2 |
| 20260503234353 | 56 | 229 | 2.6 | 3.5 | 0.00 | 0.00 | 0.00 | 43 | 1014.3 |
| 20260503233850 | 56 | 278 | 0.9 | 2.6 | 0.00 | 0.00 | 0.00 | 44 | 1014.4 |
| 20260503233347 | 56 | 276 | 1.7 | 2.6 | 0.00 | 0.00 | 0.00 | 43 | 1014.1 |
| 20260503232843 | 56 | 123 | 0.9 | 1.7 | 0.00 | 0.00 | 0.00 | 43 | 1014.3 |
| 20260503232340 | 56 | 222 | 5.2 | 7.0 | 0.00 | 0.00 | 0.00 | 43 | 1014.4 |
| 20260503231839 | 56 | 222 | 5.2 | 7.0 | 0.00 | 0.00 | 0.00 | 43 | 1014.4 |
| 20260503231335 | 56 | 261 | 1.7 | 2.6 | 0.00 | 0.00 | 0.00 | 44 | 1014.4 |
| 20260503230831 | 56 | 261 | 1.7 | 2.6 | 0.00 | 0.00 | 0.00 | 44 | 1014.5 |
| 20260503230328 | 56 | 202 | 0.9 | 5.2 | 0.00 | 0.00 | 0.00 | 43 | 1014.5 |
| 20260503225826 | 0 | 0.0 | 0.0 | 0.00 | 0.00 | 0.00 | 1014.6 | ||
| 20260503225322 | 56 | 224 | 3.5 | 5.2 | 0.00 | 0.00 | 0.00 | 40 | 1014.6 |
| 20260503224818 | 56 | 224 | 3.5 | 5.2 | 0.00 | 0.00 | 0.00 | 40 | 1014.5 |
| 20260503224316 | 56 | 218 | 1.7 | 5.2 | 0.00 | 0.00 | 0.00 | 41 | 1014.5 |
| 20260503223813 | 57 | 237 | 1.7 | 2.6 | 0.00 | 0.00 | 0.00 | 42 | 1014.7 |
| 20260503223311 | 57 | 129 | 1.7 | 5.2 | 0.00 | 0.00 | 0.00 | 41 | 1014.5 |
| 20260503222806 | 57 | 2 | 2.6 | 3.5 | 0.00 | 0.00 | 0.00 | 42 | 1014.5 |
| 20260503222305 | 57 | 272 | 3.5 | 5.2 | 0.00 | 0.00 | 0.00 | 42 | 1014.7 |
| 20260503221803 | 57 | 230 | 3.5 | 7.0 | 0.00 | 0.00 | 0.00 | 40 | 1014.7 |
| 20260503221300 | 57 | 241 | 3.5 | 5.2 | 0.00 | 0.00 | 0.00 | 41 | 1014.9 |
| 20260503220756 | 57 | 225 | 3.5 | 3.5 | 0.00 | 0.00 | 0.00 | 42 | 1014.9 |
| 20260503220254 | 57 | 207 | 2.6 | 3.5 | 0.00 | 0.00 | 0.00 | 40 | 1014.7 |
| 20260503215750 | 58 | 280 | 4.3 | 7.0 | 0.00 | 0.00 | 0.00 | 40 | 1015.1 |
| 20260503215247 | 58 | 233 | 0.9 | 3.5 | 0.00 | 0.00 | 0.00 | 41 | 1014.9 |
| 20260503214745 | 57 | 240 | 1.7 | 2.6 | 0.00 | 0.00 | 0.00 | 40 | 1015.1 |
| 20260503214242 | 57 | 293 | 3.5 | 3.5 | 0.00 | 0.00 | 0.00 | 40 | 1015.1 |
| 20260503213740 | 57 | 204 | 1.7 | 5.2 | 0.00 | 0.00 | 0.00 | 43 | 1015.2 |
| 20260503213237 | 58 | 235 | 3.5 | 7.8 | 0.00 | 0.00 | 0.00 | 39 | 1014.9 |
| 20260503212734 | 58 | 138 | 7.0 | 8.7 | 0.00 | 0.00 | 0.00 | 40 | 1015.2 |
| 20260503212232 | 58 | 259 | 2.6 | 5.2 | 0.00 | 0.00 | 0.00 | 40 | 1015.2 |
| 20260503211729 | 58 | 284 | 1.7 | 6.1 | 0.00 | 0.00 | 0.00 | 40 | 1015.2 |
| 20260503211225 | 58 | 228 | 1.7 | 6.1 | 0.00 | 0.00 | 0.00 | 40 | 1015.2 |
| 20260503210720 | 58 | 236 | 0.9 | 3.5 | 0.00 | 0.00 | 0.00 | 41 | 1015.2 |
| 20260503210218 | 58 | 246 | 2.6 | 5.2 | 0.00 | 0.00 | 0.00 | 41 | 1015.1 |
| 20260503205713 | 58 | 220 | 3.5 | 7.0 | 0.00 | 0.00 | 0.00 | 41 | 1015.2 |
| 20260503205210 | 58 | 295 | 3.5 | 6.1 | 0.00 | 0.00 | 0.00 | 41 | 1015.3 |
| 20260503204706 | 58 | 140 | 1.7 | 6.1 | 0.00 | 0.00 | 0.00 | 40 | 1015.1 |
| 20260503204204 | 58 | 301 | 1.7 | 3.5 | 0.00 | 0.00 | 0.00 | 43 | 1015.4 |
| 20260503203701 | 58 | 231 | 1.7 | 6.1 | 0.00 | 0.00 | 0.00 | 39 | 1015.4 |
| 20260503203159 | 59 | 228 | 1.7 | 7.8 | 0.00 | 0.00 | 0.00 | 39 | 1015.3 |
| 20260503202655 | 60 | 303 | 2.6 | 3.5 | 0.00 | 0.00 | 0.00 | 42 | 1015.4 |
| 20260503202154 | 58 | 294 | 1.7 | 2.6 | 0.00 | 0.00 | 0.00 | 42 | 1015.5 |
| 20260503201651 | 58 | 225 | 1.7 | 7.8 | 0.00 | 0.00 | 0.00 | 42 | 1015.6 |
| 20260503201149 | 59 | 93 | 3.5 | 6.1 | 0.00 | 0.00 | 0.00 | 39 | 1015.5 |
| 20260503200644 | 60 | 289 | 2.6 | 2.6 | 0.00 | 0.00 | 0.00 | 40 | 1015.5 |
| 20260503200141 | 59 | 203 | 2.6 | 7.8 | 0.00 | 0.00 | 0.00 | 41 | 1015.6 |
| 20260503195638 | 59 | 193 | 2.6 | 3.5 | 0.00 | 0.00 | 0.00 | 41 | 1015.7 |
| 20260503195135 | 59 | 255 | 1.7 | 1.7 | 0.00 | 0.00 | 0.00 | 40 | 1015.7 |
| 20260503194632 | 60 | 234 | 2.6 | 5.2 | 0.00 | 0.00 | 0.00 | 40 | 1015.8 |
| 20260503194127 | 58 | 234 | 1.7 | 2.6 | 0.00 | 0.00 | 0.00 | 41 | 1015.7 |
| 20260503193625 | 58 | 255 | 1.7 | 6.1 | 0.00 | 0.00 | 0.00 | 39 | 1016.0 |
| 20260503193120 | 58 | 144 | 1.7 | 5.2 | 0.00 | 0.00 | 0.00 | 41 | 1016.1 |
| 20260503192616 | 59 | 285 | 1.7 | 5.2 | 0.00 | 0.00 | 0.00 | 40 | 1016.2 |
| 20260503192112 | 59 | 312 | 1.7 | 2.6 | 0.00 | 0.00 | 0.00 | 40 | 1016.1 |
| 20260503191604 | 58 | 250 | 0.9 | 2.6 | 0.00 | 0.00 | 0.00 | 41 | 1016.2 |
| 20260503191100 | 57 | 137 | 3.5 | 12.2 | 0.00 | 0.00 | 0.00 | 41 | 1016.4 |
| 20260503190557 | 58 | 236 | 5.2 | 7.0 | 0.00 | 0.00 | 0.00 | 40 | 1016.5 |
| 20260503190054 | 58 | 186 | 2.6 | 3.5 | 0.00 | 0.00 | 0.00 | 40 | 1016.5 |
| 20260503185551 | 58 | 306 | 5.2 | 7.0 | 0.00 | 0.00 | 0.00 | 39 | 1016.8 |
| 20260503185050 | 58 | 249 | 6.1 | 9.6 | 0.00 | 0.00 | 0.00 | 39 | 1016.7 |
| 20260503184546 | 58 | 265 | 3.5 | 6.1 | 0.00 | 0.00 | 0.00 | 38 | 1016.8 |
| 20260503184043 | 59 | 223 | 2.6 | 3.5 | 0.00 | 0.00 | 0.00 | 39 | 1016.9 |
| 20260503183534 | 57 | 159 | 1.7 | 2.6 | 0.00 | 0.00 | 0.00 | 41 | 1016.9 |
| 20260503183031 | 58 | 295 | 3.5 | 5.2 | 0.00 | 0.00 | 0.00 | 41 | 1016.8 |
| 20260503182530 | 58 | 162 | 2.6 | 5.2 | 0.00 | 0.00 | 0.00 | 40 | 1016.8 |
| 20260503182027 | 59 | 292 | 0.9 | 1.7 | 0.00 | 0.00 | 0.00 | 39 | 1016.8 |
| 20260503181524 | 58 | 265 | 1.7 | 3.5 | 0.00 | 0.00 | 0.00 | 40 | 1017.0 |
| 20260503181020 | 59 | 288 | 4.3 | 5.2 | 0.00 | 0.00 | 0.00 | 42 | 1017.1 |
| 20260503180518 | 59 | 239 | 6.1 | 12.2 | 0.00 | 0.00 | 0.00 | 39 | 1017.1 |
| 20260503180015 | 59 | 223 | 2.6 | 6.1 | 0.00 | 0.00 | 0.00 | 44 | 1016.9 |
| 20260503175512 | 60 | 278 | 0.9 | 3.5 | 0.00 | 0.00 | 0.00 | 43 | 1017.1 |
| 20260503175009 | 59 | 222 | 2.6 | 5.2 | 0.00 | 0.00 | 0.00 | 41 | 1017.3 |
| 20260503174507 | 59 | 251 | 4.3 | 7.0 | 0.00 | 0.00 | 0.00 | 39 | 1017.3 |
| 20260503174003 | 58 | 307 | 4.3 | 6.1 | 0.00 | 0.00 | 0.00 | 39 | 1017.2 |
| 20260503173457 | 60 | 240 | 0.9 | 3.5 | 0.00 | 0.00 | 0.00 | 39 | 1017.5 |
| 20260503172949 | 59 | 275 | 2.6 | 5.2 | 0.00 | 0.00 | 0.00 | 40 | 1017.2 |
| 20260503172446 | 58 | 359 | 1.7 | 3.5 | 0.00 | 0.00 | 0.00 | 43 | 1017.4 |
| 20260503171943 | 58 | 235 | 2.6 | 2.6 | 0.00 | 0.00 | 0.00 | 44 | 1017.5 |
| 20260503171439 | 58 | 249 | 5.2 | 7.8 | 0.00 | 0.00 | 0.00 | 42 | 1017.9 |
| 20260503170937 | 58 | 122 | 0.0 | 2.6 | 0.00 | 0.00 | 0.00 | 42 | 1017.7 |
| 20260503170433 | 58 | 190 | 3.5 | 5.2 | 0.00 | 0.00 | 0.00 | 45 | 1017.7 |
| 20260503150819 | 53 | 160 | 2.6 | 3.5 | 0.00 | 0.00 | 0.00 | 48 | 1018.4 |
| 20260503150315 | 53 | 193 | 4.3 | 6.1 | 0.00 | 0.00 | 0.00 | 51 | 1018.8 |
| 20260503140240 | 50 | 233 | 2.6 | 2.6 | 0.00 | 0.00 | 0.00 | 49 | 1018.5 |
| 20260503131210 | 45 | 145 | 2.6 | 2.6 | 0.00 | 0.00 | 0.00 | 60 | 1019.0 |
| 20260503130707 | 45 | 145 | 2.6 | 2.6 | 0.00 | 0.00 | 0.00 | 60 | 1018.9 |
| 20260503130204 | 44 | 215 | 1.7 | 1.7 | 0.00 | 0.00 | 0.00 | 62 | 1019.1 |
| 20260503120130 | 39 | 259 | 0.9 | 1.7 | 0.00 | 0.00 | 0.00 | 68 | 1019.0 |
| 20260503110557 | 0 | 0.0 | 0.0 | 0.00 | 0.00 | 0.00 | 1018.4 | ||
| 20260503090438 | 0 | 0.0 | 0.0 | 0.00 | 0.00 | 0.00 | 1018.1 | ||
| 20260503081404 | 0 | 0.0 | 0.0 | 0.00 | 0.00 | 0.00 | 1018.3 | ||
| 20260503080901 | 0 | 0.0 | 0.0 | 0.00 | 0.00 | 0.00 | 1018.2 | ||
| 20260503080358 | 0 | 0.0 | 0.0 | 0.00 | 0.00 | 0.00 | 1018.2 | ||
| 20260503072834 | 0 | 0.0 | 0.0 | 0.00 | 0.00 | 0.00 | 1018.1 | ||
| 20260503072331 | 0 | 0.0 | 0.0 | 0.00 | 0.00 | 0.00 | 1018.0 | ||
| 20260503071827 | 0 | 0.0 | 0.0 | 0.00 | 0.00 | 0.00 | 1018.2 | ||
| 20260503071325 | 0 | 0.0 | 0.0 | 0.00 | 0.00 | 0.00 | 1018.1 | ||
| 20260503070821 | 0 | 0.0 | 0.0 | 0.00 | 0.00 | 0.00 | 1018.2 | ||
| 20260503070319 | 0 | 0.0 | 0.0 | 0.00 | 0.00 | 0.00 | 1018.1 |